EUTELSAT 7C

Last updated on Thu Sep 10 2026 00:03:00 GMT+0000 (Coordinated Universal Time)

1 44334U 19034B 26252.58696164 .00000027 00000+0 00000+0 0 9994 2 44334 0.0716 179.6248 0003101 336.8546 50.4486 1.00270630 7688
UTC large
Height (km)
Speed (km/s)
/
Latitude / Longitude
Inclination (degrees)
Orbital Period (minutes)
Azimuth
Elevation
Range (km)
Doppler Factor

Next 0 passes for location: London (51.5072 / 0.1276)

No passes found over London.
EUTELSAT 7C